| time (UTC) | temp F | wind direction | speed MPH | gust MPH | rain 1hr in | rain 24hr in | rain mn in | humidity % | barometer mb |
| 20260906214510 | 60 | 276 | 0.0 | 0.0 | 0.00 | 0.45 | 0.18 | 81 | 1017.7 |
| 20260906213016 | 60 | 278 | 0.0 | 0.0 | 0.00 | 0.45 | 0.18 | 82 | 1017.6 |
| 20260906211523 | 60 | 281 | 0.0 | 0.0 | 0.00 | 0.45 | 0.18 | 80 | 1017.5 |
| 20260906210025 | 61 | 276 | 0.0 | 0.0 | 0.00 | 0.45 | 0.18 | 79 | 1017.5 |
| 20260906204506 | 61 | 229 | 0.0 | 0.0 | 0.00 | 0.45 | 0.18 | 79 | 1017.5 |
| 20260906203010 | 60 | 229 | 0.0 | 0.0 | 0.00 | 0.45 | 0.18 | 80 | 1017.5 |
| 20260906201518 | 60 | 214 | 0.0 | 0.0 | 0.00 | 0.45 | 0.18 | 80 | 1017.7 |
| 20260906200026 | 60 | 213 | 0.0 | 0.0 | 0.00 | 0.45 | 0.18 | 80 | 1017.7 |
| 20260906194531 | 61 | 167 | 0.0 | 0.0 | 0.00 | 0.45 | 0.18 | 80 | 1017.7 |
| 20260906193012 | 60 | 166 | 0.0 | 0.0 | 0.00 | 0.45 | 0.18 | 81 | 1017.7 |
| 20260906191516 | 60 | 45 | 0.0 | 0.0 | 0.00 | 0.45 | 0.18 | 81 | 1018.0 |
| 20260906190029 | 60 | 65 | 0.0 | 0.0 | 0.00 | 0.45 | 0.18 | 80 | 1018.2 |
| 20260906184530 | 59 | 67 | 0.0 | 0.0 | 0.00 | 0.45 | 0.18 | 81 | 1018.3 |
| 20260906183042 | 59 | 70 | 0.0 | 0.0 | 0.00 | 0.45 | 0.18 | 81 | 1018.4 |
| 20260906181518 | 59 | 69 | 0.0 | 0.0 | 0.00 | 0.45 | 0.18 | 83 | 1018.3 |
| 20260906180022 | 58 | 63 | 0.0 | 4.0 | 0.00 | 0.45 | 0.18 | 84 | 1018.0 |
| 20260906174527 | 57 | 75 | 0.0 | 0.0 | 0.00 | 0.45 | 0.18 | 84 | 1018.4 |
| 20260906173032 | 57 | 71 | 0.0 | 0.0 | 0.00 | 0.45 | 0.18 | 82 | 1018.9 |
| 20260906171517 | 57 | 59 | 0.0 | 0.0 | 0.00 | 0.45 | 0.18 | 83 | 1019.0 |
| 20260906170011 | 57 | 1 | 0.0 | 0.0 | 0.00 | 0.45 | 0.18 | 84 | 1019.4 |
| 20260906164505 | 55 | 51 | 0.0 | 0.0 | 0.00 | 0.45 | 0.18 | 90 | 1018.9 |
| 20260906163005 | 54 | 60 | 0.0 | 0.0 | 0.00 | 0.45 | 0.18 | 91 | 1019.8 |
| 20260906161513 | 54 | 336 | 0.0 | 0.0 | 0.00 | 0.45 | 0.18 | 91 | 1020.2 |
| 20260906160016 | 54 | 354 | 0.0 | 0.0 | 0.00 | 0.45 | 0.18 | 91 | 1020.3 |
| 20260906154510 | 54 | 77 | 0.0 | 0.0 | 0.00 | 0.45 | 0.18 | 91 | 1019.9 |
| 20260906153004 | 53 | 328 | 0.0 | 0.0 | 0.00 | 0.45 | 0.18 | 91 | 1020.2 |
| 20260906151508 | 53 | 323 | 0.0 | 0.0 | 0.01 | 0.46 | 0.18 | 92 | 1020.4 |
| 20260906150014 | 53 | 297 | 0.0 | 0.0 | 0.02 | 0.46 | 0.18 | 92 | 1020.4 |
| 20260906144525 | 53 | 335 | 0.0 | 0.0 | 0.11 | 0.46 | 0.18 | 92 | 1020.3 |
| 20260906143004 | 53 | 347 | 0.0 | 0.0 | 0.11 | 0.46 | 0.18 | 92 | 1020.4 |
| 20260906141507 | 53 | 335 | 0.0 | 0.0 | 0.10 | 0.46 | 0.17 | 92 | 1020.6 |
| 20260906140020 | 53 | 334 | 0.0 | 0.0 | 0.09 | 0.46 | 0.16 | 91 | 1020.6 |
| 20260906134535 | 54 | 304 | 0.0 | 0.0 | 0.00 | 0.37 | 0.07 | 90 | 1020.9 |
| 20260906133045 | 54 | 273 | 0.0 | 3.0 | 0.00 | 0.37 | 0.07 | 89 | 1020.4 |
| 20260906131507 | 55 | 243 | 0.0 | 0.0 | 0.00 | 0.38 | 0.07 | 90 | 1020.1 |
| 20260906130010 | 55 | 44 | 0.0 | 0.0 | 0.00 | 0.41 | 0.07 | 89 | 1019.9 |
| 20260906124516 | 55 | 330 | 0.0 | 0.0 | 0.00 | 0.43 | 0.07 | 89 | 1020.5 |
| 20260906123031 | 54 | 330 | 0.0 | 0.0 | 0.00 | 0.43 | 0.07 | 89 | 1020.6 |
| 20260906121529 | 54 | 327 | 0.0 | 0.0 | 0.00 | 0.43 | 0.07 | 89 | 1020.6 |
| 20260906120011 | 54 | 341 | 0.0 | 0.0 | 0.00 | 0.43 | 0.07 | 90 | 1020.3 |
| 20260906114512 | 54 | 319 | 0.0 | 0.0 | 0.00 | 0.43 | 0.07 | 90 | 1020.7 |
| 20260906113018 | 54 | 2 | 0.0 | 0.0 | 0.00 | 0.43 | 0.07 | 90 | 1020.4 |
| 20260906111531 | 55 | 262 | 0.0 | 0.0 | 0.00 | 0.43 | 0.07 | 90 | 1020.6 |
| 20260906110034 | 55 | 62 | 0.0 | 0.0 | 0.00 | 0.43 | 0.07 | 89 | 1019.9 |
| 20260906104510 | 55 | 66 | 0.0 | 0.0 | 0.00 | 0.43 | 0.07 | 88 | 1019.7 |
| 20260906103023 | 56 | 67 | 0.0 | 0.0 | 0.00 | 0.43 | 0.07 | 87 | 1019.5 |
| 20260906101531 | 55 | 68 | 0.0 | 0.0 | 0.00 | 0.43 | 0.07 | 90 | 1020.2 |
| 20260906100032 | 55 | 335 | 0.0 | 0.0 | 0.00 | 0.43 | 0.07 | 91 | 1020.6 |
| 20260906094534 | 55 | 58 | 0.0 | 0.0 | 0.00 | 0.43 | 0.07 | 90 | 1020.4 |
| 20260906093016 | 55 | 77 | 0.0 | 0.0 | 0.00 | 0.43 | 0.07 | 91 | 1020.5 |
| 20260906091528 | 54 | 57 | 0.0 | 0.0 | 0.01 | 0.43 | 0.07 | 91 | 1020.3 |
| 20260906090027 | 54 | 62 | 0.0 | 0.0 | 0.02 | 0.43 | 0.07 | 92 | 1020.2 |
| 20260906084531 | 54 | 54 | 0.0 | 0.0 | 0.03 | 0.43 | 0.07 | 92 | 1020.4 |
| 20260906083015 | 54 | 60 | 0.0 | 0.0 | 0.06 | 0.43 | 0.07 | 92 | 1020.8 |
| 20260906081520 | 54 | 316 | 0.0 | 0.0 | 0.05 | 0.42 | 0.06 | 92 | 1022.1 |
| 20260906080028 | 54 | 268 | 0.0 | 0.0 | 0.04 | 0.41 | 0.05 | 91 | 1022.0 |
| 20260906074504 | 54 | 330 | 0.0 | 0.0 | 0.03 | 0.40 | 0.04 | 90 | 1021.5 |
| 20260906073021 | 54 | 266 | 0.0 | 0.0 | 0.00 | 0.37 | 0.01 | 91 | 1022.5 |
| 20260906071517 | 54 | 76 | 0.0 | 0.0 | 0.01 | 0.37 | 0.01 | 90 | 1021.3 |
| 20260906070025 | 55 | 44 | 0.0 | 0.0 | 0.01 | 0.37 | 0.01 | 91 | 1021.5 |
| 20260906064531 | 54 | 287 | 0.0 | 0.0 | 0.02 | 0.37 | 0.01 | 91 | 1022.0 |
| 20260906063009 | 54 | 66 | 0.0 | 0.0 | 0.19 | 0.37 | 0.01 | 91 | 1021.5 |
| 20260906061518 | 54 | 301 | 0.0 | 0.0 | 0.18 | 0.36 | 0.00 | 91 | 1022.0 |
| 20260906060030 | 54 | 321 | 0.0 | 0.0 | 0.18 | 0.36 | 0.00 | 91 | 1022.1 |
| 20260906054526 | 55 | 310 | 0.0 | 0.0 | 0.17 | 0.35 | 0.35 | 89 | 1022.3 |
| 20260906053036 | 55 | 302 | 0.0 | 0.0 | 0.01 | 0.18 | 0.18 | 89 | 1023.0 |
| 20260906051513 | 55 | 313 | 0.0 | 0.0 | 0.02 | 0.18 | 0.18 | 89 | 1021.6 |
| 20260906050023 | 55 | 28 | 0.0 | 0.0 | 0.02 | 0.18 | 0.18 | 88 | 1022.1 |
| 20260906044524 | 56 | 324 | 0.0 | 0.0 | 0.02 | 0.18 | 0.18 | 88 | 1021.9 |
| 20260906043031 | 56 | 342 | 0.0 | 0.0 | 0.01 | 0.17 | 0.17 | 85 | 1021.6 |
| 20260906041532 | 56 | 359 | 0.0 | 0.0 | 0.01 | 0.16 | 0.16 | 85 | 1021.9 |
| 20260906040018 | 57 | 21 | 0.0 | 0.0 | 0.06 | 0.16 | 0.16 | 83 | 1021.0 |
| 20260906034527 | 57 | 345 | 0.0 | 0.0 | 0.07 | 0.16 | 0.16 | 82 | 1021.3 |
| 20260906033030 | 57 | 286 | 0.0 | 0.0 | 0.07 | 0.16 | 0.16 | 83 | 1021.3 |
| 20260906031533 | 57 | 102 | 0.0 | 0.0 | 0.06 | 0.15 | 0.15 | 83 | 1019.7 |
| 20260906030038 | 60 | 257 | 0.0 | 0.0 | 0.01 | 0.10 | 0.10 | 78 | 1022.6 |
| 20260906024521 | 61 | 334 | 0.0 | 0.0 | 0.00 | 0.09 | 0.09 | 68 | 1021.2 |
| 20260906023025 | 62 | 1 | 0.0 | 0.0 | 0.00 | 0.09 | 0.09 | 67 | 1020.0 |
| 20260906021532 | 62 | 322 | 0.0 | 0.0 | 0.00 | 0.09 | 0.09 | 65 | 1019.3 |
| 20260906020043 | 62 | 66 | 0.0 | 0.0 | 0.00 | 0.09 | 0.09 | 65 | 1019.6 |
| 20260906014522 | 63 | 56 | 0.0 | 0.0 | 0.00 | 0.09 | 0.09 | 63 | 1019.7 |
| 20260906013029 | 64 | 54 | 0.0 | 0.0 | 0.00 | 0.09 | 0.09 | 62 | 1019.7 |
| 20260906011506 | 64 | 52 | 0.0 | 0.0 | 0.00 | 0.09 | 0.09 | 60 | 1019.7 |
| 20260906010010 | 65 | 65 | 0.0 | 0.0 | 0.00 | 0.09 | 0.09 | 60 | 1019.5 |
| 20260906004518 | 66 | 49 | 0.0 | 0.0 | 0.00 | 0.09 | 0.09 | 58 | 1019.5 |
| 20260906003021 | 66 | 30 | 0.0 | 0.0 | 0.00 | 0.09 | 0.09 | 55 | 1019.4 |
| 20260906001502 | 67 | 311 | 0.0 | 0.0 | 0.00 | 0.09 | 0.09 | 54 | 1019.7 |
| 20260906000008 | 69 | 28 | 0.0 | 0.0 | 0.00 | 0.09 | 0.09 | 51 | 1019.8 |
| 20260905234515 | 69 | 57 | 0.0 | 0.0 | 0.00 | 0.09 | 0.09 | 52 | 1019.6 |
| 20260905233033 | 69 | 232 | 0.0 | 0.0 | 0.00 | 0.09 | 0.09 | 51 | 1019.9 |
| 20260905231533 | 69 | 7 | 0.0 | 0.0 | 0.00 | 0.09 | 0.09 | 51 | 1019.9 |
| 20260905230008 | 69 | 310 | 0.0 | 0.0 | 0.00 | 0.09 | 0.09 | 53 | 1019.9 |
| 20260905224513 | 70 | 319 | 0.0 | 0.0 | 0.00 | 0.09 | 0.09 | 53 | 1019.9 |
| 20260905223019 | 70 | 184 | 0.0 | 0.0 | 0.00 | 0.09 | 0.09 | 51 | 1019.9 |
| 20260905221507 | 70 | 307 | 0.0 | 0.0 | 0.00 | 0.09 | 0.09 | 52 | 1020.1 |
| 20260905220003 | 69 | 357 | 0.0 | 0.0 | 0.00 | 0.09 | 0.09 | 52 | 1020.2 |